Weather History for Paducah, KY

Change the Weather History Date:

Wednesday, November 23, 2011

  Actual Average Record
Temperature  
Mean Temperature 47 °F 45 °F  
Max Temperature 49 °F 55 °F 70 °F (2003)
Min Temperature 45 °F 35 °F 15 °F (1950)
Degree Days  
Heating Degree Days 18 20  
Month to date heating degree days 276 358  
Since 1 July heating degree days 544 625  
Cooling Degree Days 0 0  
Month to date cooling degree days 5 0  
Year to date cooling degree days 1703 1538  
Moisture  
Dew Point 41 °F    
Average Humidity 85    
Maximum Humidity 89    
Minimum Humidity 80    
Precipitation  
Precipitation 0.00 in 0.15 in 4.06 in (1951)
Month to date precipitation 7.47 3.19  
Year to date precipitation 65.03 43.38  
Snow  
Snow 0.00 in 0.00 in 1.30 in (1950)
Month to date snowfall 0.0 0.0  
Since 1 July snowfall 0.0 0.1  
Since 1 September snowfall 0.0 0.1  
Snow Depth 0.00 in    
Sea Level Pressure  
Sea Level Pressure 30.26 in    
Wind  
Wind Speed 5 mph (NW)    
Max Wind Speed 15 mph    
Max Gust Speed 20 mph    
Visibility 8 miles    
Events      
T = Trace of Precipitation, MM = Missing Value Source: NWS Daily Summary

Daily Weather History Graph

Daily Weather History Graph

Search for Another Location

Airport:

Trip Planner

Search our weather history database for the weather conditions in past years. The results will help you decide how hot, cold, wet, or windy it might be!

Date:

Astronomy

Nov. 23, 2011 Rise Set
Actual Time 6:41 AM CST 4:40 PM CST
Civil Twilight 6:13 AM CST 5:09 PM CST
Nautical Twilight 5:41 AM CST 5:40 PM CST
Astronomical Twilight 5:10 AM CST 6:11 PM CST
Moon 4:47 AM CST (11/23) 3:21 PM CST (11/23)
Length of Visible Light 10h 55m
Length of Day
9h 59m
Waning Crescent, 3% of the Moon is Illuminated
Nov 23
Waning Crescent
Nov 25
New
Dec 2
First Quarter
Dec 10
Full
Dec 17
Last Quarter

Hourly Weather History & Observations

Time (CST) Temp. Windchill Dew Point Humidity Pressure Visibility Wind Dir Wind Speed Gust Speed Precip Events Conditions
12:53 AM 48.0 °F - 44.1 °F 86% 30.09 in 7.0 mi NW 9.2 mph - N/A   Overcast
1:53 AM 48.0 °F - 43.0 °F 83% 30.11 in 6.0 mi NNW 10.4 mph 18.4 mph N/A   Haze
2:53 AM 46.4 °F 41.5 °F 42.8 °F 87% 30.12 in 7.0 mi NNW 10.4 mph - N/A   Overcast
3:53 AM 46.9 °F - 42.1 °F 83% 30.14 in 7.0 mi NNW 6.9 mph - N/A   Overcast
4:53 AM 46.9 °F - 41.0 °F 80% 30.17 in 9.0 mi NW 8.1 mph - N/A   Overcast
6:05 AM 46.4 °F 41.9 °F 41.0 °F 81% 30.20 in 8.0 mi NNW 9.2 mph - N/A   Overcast
6:45 AM 44.6 °F 38.8 °F 41.0 °F 87% 30.22 in 9.0 mi North 11.5 mph - N/A   Overcast
6:53 AM 45.0 °F 40.1 °F 41.0 °F 86% 30.23 in 10.0 mi North 9.2 mph - N/A   Overcast
7:53 AM 46.0 °F 41.9 °F 41.0 °F 83% 30.25 in 10.0 mi North 8.1 mph - N/A   Overcast
8:53 AM 46.0 °F 41.0 °F 41.0 °F 83% 30.27 in 10.0 mi North 10.4 mph - N/A   Overcast
9:53 AM 46.0 °F 41.9 °F 41.0 °F 83% 30.29 in 10.0 mi North 8.1 mph - N/A   Overcast
10:53 AM 46.9 °F - 41.0 °F 80% 30.29 in 10.0 mi North 5.8 mph - N/A   Overcast
11:53 AM 46.9 °F - 41.0 °F 80% 30.28 in 10.0 mi NNE 4.6 mph - N/A   Overcast
12:53 PM 46.9 °F - 41.0 °F 80% 30.27 in 10.0 mi NNW 3.5 mph - N/A   Overcast
1:53 PM 46.4 °F 44.3 °F 41.0 °F 81% 30.26 in 10.0 mi NNE 4.6 mph - N/A   Overcast
2:53 PM 46.9 °F - 41.0 °F 80% 30.27 in 9.0 mi NNW 3.5 mph - N/A   Overcast
3:53 PM 46.9 °F - 41.0 °F 80% 30.29 in 8.0 mi West 3.5 mph - N/A   Overcast
4:53 PM 46.0 °F 44.8 °F 41.0 °F 83% 30.29 in 9.0 mi West 3.5 mph - N/A   Overcast
5:53 PM 46.0 °F - 41.0 °F 83% 30.30 in 8.0 mi Calm Calm - N/A   Overcast
6:53 PM 46.0 °F - 41.0 °F 83% 30.32 in 10.0 mi Calm Calm - N/A   Overcast
7:53 PM 46.0 °F 44.8 °F 41.0 °F 83% 30.32 in 8.0 mi South 3.5 mph - N/A   Overcast
8:53 PM 46.4 °F - 41.0 °F 81% 30.33 in 7.0 mi Calm Calm - N/A   Overcast
9:51 PM 46.4 °F 44.3 °F 41.0 °F 81% 30.34 in 6.0 mi SW 4.6 mph - N/A   Haze
9:53 PM 46.0 °F 44.8 °F 41.0 °F 83% 30.34 in 6.0 mi SW 3.5 mph - N/A   Haze
10:53 PM 46.0 °F - 41.0 °F 83% 30.34 in 6.0 mi Calm Calm - N/A   Haze
11:53 PM 45.0 °F 42.6 °F 41.0 °F 86% 30.33 in 6.0 mi South 4.6 mph - N/A   Overcast